�������l�o���
Date,Time,MP-1(��Sv/h),MP-2(��Sv/h),MP-3(��Sv/h),MP-4(��Sv/h),MP-5(��Sv/h),MP-6(��Sv/h),MP-7(��Sv/h),MP-8(��Sv/h),����,����(m/s),���J
2021/02/16,00:00,0.642,0.908,0.587,1.146,0.778,0.375,0.657,0.620,��,16.0,��
2021/02/16,00:10,0.641,0.907,0.588,1.145,0.778,0.374,0.657,0.619,��,16.1,�L
2021/02/16,00:20,0.641,0.909,0.586,1.145,0.778,0.376,0.657,0.618,��,16.6,��
2021/02/16,00:30,0.640,0.909,0.588,1.145,0.779,0.375,0.656,0.620,��,12.7,��
2021/02/16,00:40,0.640,0.908,0.587,1.145,0.780,0.375,0.658,0.619,��,10.2,��
2021/02/16,00:50,0.641,0.909,0.587,1.145,0.781,0.377,0.657,0.618,��,13.8,��
2021/02/16,01:00,0.639,0.910,0.588,1.148,0.781,0.374,0.657,0.619,��,12.7,��
2021/02/16,01:10,0.641,0.908,0.590,1.147,0.781,0.374,0.657,0.619,��,9.0,��
2021/02/16,01:20,0.641,0.911,0.587,1.147,0.781,0.376,0.657,0.619,��,11.6,��
2021/02/16,01:30,0.642,0.911,0.589,1.149,0.784,0.376,0.656,0.619,��,10.8,�L
2021/02/16,01:40,0.642,0.909,0.588,1.147,0.783,0.375,0.656,0.619,��,9.8,��
2021/02/16,01:50,0.640,0.910,0.586,1.148,0.784,0.376,0.658,0.619,��,11.6,�L
2021/02/16,02:00,0.641,0.912,0.588,1.149,0.784,0.375,0.658,0.619,��,11.9,�L
2021/02/16,02:10,0.642,0.912,0.591,1.152,0.786,0.378,0.656,0.618,��,10.0,�L
2021/02/16,02:20,0.644,0.912,0.592,1.153,0.784,0.378,0.658,0.620,���쐼,8.9,�L
2021/02/16,02:30,0.644,0.911,0.589,1.151,0.785,0.378,0.659,0.621,���쐼,8.0,��
2021/02/16,02:40,0.642,0.914,0.590,1.150,0.785,0.377,0.658,0.620,��,10.9,��
2021/02/16,02:50,0.642,0.914,0.589,1.151,0.786,0.378,0.660,0.619,��,9.1,��
2021/02/16,03:00,0.641,0.913,0.589,1.152,0.788,0.376,0.659,0.618,��,8.6,��
2021/02/16,03:10,0.640,0.914,0.590,1.151,0.786,0.376,0.660,0.619,��,8.0,��
2021/02/16,03:20,0.640,0.912,0.588,1.148,0.787,0.375,0.659,0.620,��,7.8,��
2021/02/16,03:30,0.641,0.910,0.590,1.149,0.787,0.375,0.660,0.618,��,11.3,�L
2021/02/16,03:40,0.640,0.913,0.588,1.151,0.788,0.376,0.660,0.619,���쐼,8.9,�L
2021/02/16,03:50,0.639,0.912,0.589,1.150,0.786,0.374,0.658,0.618,���쐼,8.2,��
2021/02/16,04:00,0.641,0.913,0.590,1.150,0.786,0.373,0.658,0.619,��,9.2,��
2021/02/16,04:10,0.641,0.912,0.586,1.149,0.785,0.373,0.660,0.619,��,10.8,�L
2021/02/16,04:20,0.639,0.911,0.588,1.148,0.786,0.374,0.661,0.618,��,12.1,��
2021/02/16,04:30,0.640,0.912,0.587,1.148,0.785,0.375,0.660,0.619,��,8.7,��
2021/02/16,04:40,0.639,0.913,0.587,1.151,0.787,0.373,0.658,0.619,��,11.3,��
2021/02/16,04:50,0.639,0.911,0.588,1.150,0.789,0.373,0.660,0.620,���쐼,8.0,��
2021/02/16,05:00,0.640,0.911,0.587,1.151,0.786,0.375,0.660,0.619,��,9.4,��
2021/02/16,05:10,0.640,0.911,0.588,1.150,0.789,0.373,0.659,0.619,��,10.2,��
2021/02/16,05:20,0.639,0.912,0.587,1.150,0.789,0.374,0.659,0.618,��,12.4,��
2021/02/16,05:30,0.638,0.912,0.587,1.151,0.787,0.373,0.659,0.620,��,8.7,��
2021/02/16,05:40,0.639,0.912,0.586,1.152,0.787,0.373,0.660,0.620,���k��,10.2,��
2021/02/16,05:50,0.638,0.913,0.588,1.153,0.788,0.373,0.658,0.618,��,8.8,��
2021/02/16,06:00,0.638,0.911,0.586,1.152,0.787,0.373,0.659,0.619,���k��,9.5,��
2021/02/16,06:10,0.638,0.913,0.587,1.150,0.788,0.372,0.659,0.620,��,7.2,��
2021/02/16,06:20,0.641,0.913,0.587,1.151,0.790,0.373,0.661,0.620,���쐼,7.2,��
2021/02/16,06:30,0.639,0.913,0.587,1.152,0.788,0.372,0.659,0.618,��,13.0,��
2021/02/16,06:40,0.637,0.913,0.585,1.151,0.788,0.372,0.660,0.618,��,7.1,��
2021/02/16,06:50,0.640,0.915,0.585,1.154,0.788,0.373,0.660,0.618,��,9.7,��
2021/02/16,07:00,0.638,0.913,0.585,1.153,0.790,0.372,0.659,0.619,��,8.6,��
2021/02/16,07:10,0.638,0.913,0.586,1.152,0.789,0.371,0.658,0.620,��,9.3,��
2021/02/16,07:20,0.638,0.913,0.588,1.150,0.791,0.373,0.658,0.618,��,8.9,��
2021/02/16,07:30,0.638,0.915,0.586,1.152,0.790,0.373,0.659,0.619,��,8.3,��
2021/02/16,07:40,0.639,0.913,0.588,1.152,0.791,0.373,0.658,0.619,��,7.3,��
2021/02/16,07:50,0.638,0.914,0.587,1.151,0.790,0.372,0.659,0.620,��,5.9,��
2021/02/16,08:00,0.640,0.913,0.587,1.152,0.791,0.374,0.658,0.621,���쐼,6.9,��
2021/02/16,08:10,0.639,0.915,0.587,1.154,0.790,0.374,0.660,0.617,���쐼,6.5,��
2021/02/16,08:20,0.641,0.915,0.589,1.152,0.788,0.373,0.659,0.619,��,8.2,��
2021/02/16,08:30,0.640,0.915,0.589,1.151,0.790,0.372,0.659,0.621,���쐼,7.3,��
2021/02/16,08:40,0.642,0.916,0.588,1.152,0.790,0.374,0.661,0.618,���쐼,9.2,��
2021/02/16,08:50,0.642,0.916,0.589,1.155,0.792,0.372,0.660,0.618,���쐼,8.8,��
2021/02/16,09:00,0.639,0.917,0.588,1.152,0.791,0.373,0.659,0.618,���쐼,11.0,��
2021/02/16,09:10,0.641,0.917,0.587,1.153,0.789,0.373,0.661,0.619,��,10.6,��
2021/02/16,09:20,0.641,0.917,0.589,1.152,0.791,0.373,0.657,0.620,��,11.3,��
2021/02/16,09:30,0.639,0.914,0.590,1.155,0.791,0.372,0.660,0.618,��,11.8,��
2021/02/16,09:40,0.639,0.917,0.589,1.153,0.794,0.373,0.659,0.621,��,13.6,��
2021/02/16,09:50,0.640,0.917,0.589,1.155,0.792,0.374,0.658,0.619,��,15.2,��
2021/02/16,10:00,0.640,0.914,0.590,1.155,0.790,0.373,0.657,0.618,��,12.7,��
2021/02/16,10:10,0.640,0.919,0.590,1.154,0.793,0.374,0.658,0.621,��,14.2,��
2021/02/16,10:20,0.642,0.917,0.590,1.152,0.786,0.373,0.656,0.619,���쐼,13.5,��
2021/02/16,10:30,0.640,0.916,0.589,1.154,0.787,0.373,0.656,0.619,���쐼,10.2,��
2021/02/16,10:40,0.641,0.914,0.590,1.154,0.789,0.375,0.657,0.620,��,9.4,��
2021/02/16,10:50,0.641,0.916,0.590,1.158,0.795,0.375,0.658,0.619,��,10.0,��
2021/02/16,11:00,0.640,0.917,0.590,1.156,0.796,0.373,0.656,0.621,��,11.1,��
2021/02/16,11:10,0.642,0.916,0.590,1.159,0.796,0.373,0.657,0.619,��,9.2,��
2021/02/16,11:20,0.643,0.915,0.591,1.155,0.797,0.375,0.658,0.621,��,9.3,��
2021/02/16,11:30,0.643,0.918,0.592,1.158,0.798,0.374,0.660,0.620,��,7.9,��
2021/02/16,11:40,0.643,0.919,0.591,1.158,0.797,0.374,0.659,0.622,��,6.8,�L
2021/02/16,11:50,0.643,0.920,0.592,1.157,0.797,0.374,0.657,0.622,��,9.7,�L
2021/02/16,12:00,0.642,0.920,0.592,1.157,0.799,0.375,0.658,0.621,��,9.2,��
2021/02/16,12:10,0.641,0.918,0.592,1.158,0.800,0.373,0.657,0.621,��,6.8,��
2021/02/16,12:20,0.640,0.922,0.593,1.157,0.801,0.374,0.657,0.620,��,8.4,�L
2021/02/16,12:30,0.641,0.920,0.591,1.160,0.800,0.374,0.657,0.622,��,10.7,�L
2021/02/16,12:40,0.643,0.921,0.593,1.157,0.799,0.375,0.659,0.621,���쐼,11.4,�L
2021/02/16,12:50,0.645,0.919,0.591,1.159,0.801,0.373,0.658,0.619,���쐼,10.0,�L
2021/02/16,13:00,0.643,0.921,0.593,1.160,0.798,0.375,0.658,0.619,��,8.7,��
2021/02/16,13:10,0.644,0.919,0.592,1.161,0.801,0.375,0.659,0.620,���k��,7.0,�L
2021/02/16,13:20,0.641,0.921,0.592,1.159,0.799,0.375,0.658,0.619,���k��,6.4,�L
2021/02/16,13:30,0.640,0.920,0.591,1.160,0.800,0.375,0.658,0.620,���k��,4.6,��
2021/02/16,13:40,0.641,0.919,0.593,1.158,0.799,0.375,0.658,0.621,���k��,4.1,�L
2021/02/16,13:50,0.643,0.921,0.593,1.159,0.801,0.376,0.658,0.620,���쐼,6.2,�L
2021/02/16,14:00,0.644,0.923,0.594,1.160,0.803,0.376,0.658,0.619,�쐼,6.6,�L
2021/02/16,14:10,0.644,0.922,0.593,1.160,0.802,0.375,0.657,0.619,��,6.3,��
2021/02/16,14:20,0.644,0.922,0.594,1.159,0.805,0.376,0.659,0.621,��,6.7,��
2021/02/16,14:30,0.644,0.923,0.594,1.160,0.802,0.377,0.659,0.621,��,7.5,��
2021/02/16,14:40,0.644,0.925,0.595,1.159,0.804,0.377,0.658,0.621,��,9.9,��
2021/02/16,14:50,0.647,0.923,0.594,1.160,0.802,0.374,0.659,0.620,��,10.2,��
2021/02/16,15:00,0.645,0.924,0.595,1.160,0.803,0.377,0.658,0.619,��,15.2,��
2021/02/16,15:10,0.644,0.924,0.594,1.162,0.799,0.375,0.660,0.618,���쐼,10.9,��
2021/02/16,15:20,0.642,0.922,0.593,1.160,0.802,0.374,0.659,0.619,���쐼,11.3,��
2021/02/16,15:30,0.642,0.921,0.595,1.159,0.803,0.376,0.659,0.619,��,11.1,��
2021/02/16,15:40,0.644,0.923,0.593,1.159,0.802,0.375,0.658,0.620,��,13.8,��
2021/02/16,15:50,0.643,0.924,0.593,1.159,0.799,0.375,0.660,0.622,��,12.2,��
2021/02/16,16:00,0.642,0.925,0.594,1.162,0.798,0.375,0.660,0.621,���쐼,11.8,��
2021/02/16,16:10,0.640,0.925,0.592,1.162,0.801,0.375,0.660,0.621,��,12.4,��
2021/02/16,16:20,0.642,0.923,0.593,1.162,0.803,0.374,0.658,0.621,��,11.0,��
2021/02/16,16:30,0.642,0.923,0.594,1.160,0.803,0.375,0.660,0.622,���쐼,13.1,��
2021/02/16,16:40,0.640,0.922,0.595,1.162,0.805,0.376,0.661,0.622,��,9.3,��
2021/02/16,16:50,0.642,0.925,0.592,1.163,0.804,0.375,0.662,0.621,���쐼,7.8,��
2021/02/16,17:00,0.642,0.924,0.592,1.162,0.803,0.375,0.660,0.621,��,9.2,��
2021/02/16,17:10,0.644,0.922,0.592,1.161,0.804,0.375,0.660,0.621,���쐼,10.0,��
2021/02/16,17:20,0.641,0.923,0.592,1.162,0.804,0.375,0.661,0.620,���쐼,9.7,��
2021/02/16,17:30,0.645,0.922,0.591,1.161,0.804,0.375,0.661,0.622,���쐼,9.0,��
2021/02/16,17:40,0.642,0.924,0.592,1.158,0.805,0.374,0.660,0.621,���쐼,9.8,��
2021/02/16,17:50,0.643,0.925,0.593,1.159,0.804,0.375,0.660,0.622,��,7.9,��
2021/02/16,18:00,0.642,0.922,0.594,1.160,0.802,0.374,0.661,0.620,��,8.4,��
2021/02/16,18:10,0.641,0.926,0.593,1.160,0.803,0.375,0.661,0.621,��,9.0,��
2021/02/16,18:20,0.641,0.925,0.592,1.161,0.804,0.374,0.660,0.620,��,9.6,��
2021/02/16,18:30,0.643,0.925,0.591,1.161,0.805,0.375,0.660,0.621,��,7.2,��
2021/02/16,18:40,0.640,0.923,0.591,1.160,0.804,0.376,0.660,0.622,���쐼,5.1,��
2021/02/16,18:50,0.643,0.924,0.593,1.160,0.806,0.376,0.659,0.621,�쐼,6.0,��
2021/02/16,19:00,0.641,0.922,0.593,1.160,0.805,0.373,0.660,0.620,���쐼,6.6,��
2021/02/16,19:10,0.642,0.922,0.594,1.161,0.813,0.373,0.659,0.620,�쐼,7.3,��
2021/02/16,19:20,0.641,0.924,0.593,1.161,0.805,0.374,0.660,0.621,�쐼,6.0,��
2021/02/16,19:30,0.642,0.924,0.591,1.161,0.807,0.375,0.660,0.620,�쐼,7.0,��
2021/02/16,19:40,0.642,0.924,0.592,1.160,0.806,0.374,0.659,0.622,�쐼,7.9,��
2021/02/16,19:50,0.641,0.923,0.593,1.162,0.806,0.374,0.661,0.621,�쐼,7.5,��
2021/02/16,20:00,0.642,0.925,0.593,1.162,0.808,0.375,0.661,0.623,���쐼,8.1,��
2021/02/16,20:10,0.642,0.923,0.592,1.160,0.808,0.373,0.661,0.619,���쐼,8.0,��
2021/02/16,20:20,0.640,0.924,0.592,1.160,0.806,0.374,0.661,0.622,�쐼,6.0,��
2021/02/16,20:30,0.641,0.924,0.592,1.159,0.806,0.373,0.662,0.619,�쐼,6.5,��
2021/02/16,20:40,0.643,0.926,0.593,1.163,0.806,0.374,0.660,0.619,��쐼,6.9,��
2021/02/16,20:50,0.642,0.927,0.593,1.162,0.808,0.376,0.659,0.621,��쐼,8.5,��
2021/02/16,21:00,0.642,0.923,0.593,1.160,0.806,0.373,0.662,0.621,��쐼,8.9,��
2021/02/16,21:10,0.642,0.923,0.593,1.162,0.806,0.372,0.664,0.622,�쐼,9.1,��
2021/02/16,21:20,0.643,0.924,0.594,1.162,0.808,0.375,0.662,0.621,���쐼,9.4,��
2021/02/16,21:30,0.642,0.922,0.593,1.161,0.808,0.375,0.660,0.620,���쐼,6.0,��
2021/02/16,21:40,0.643,0.925,0.594,1.162,0.807,0.374,0.660,0.622,���쐼,7.7,��
2021/02/16,21:50,0.643,0.924,0.594,1.161,0.806,0.375,0.661,0.620,���쐼,7.0,��
2021/02/16,22:00,0.643,0.924,0.595,1.163,0.808,0.376,0.662,0.623,���쐼,8.3,��
2021/02/16,22:10,0.641,0.924,0.592,1.163,0.807,0.374,0.660,0.620,���쐼,6.0,��
2021/02/16,22:20,0.641,0.924,0.595,1.164,0.807,0.374,0.661,0.621,���쐼,6.5,��
2021/02/16,22:30,0.643,0.926,0.593,1.162,0.809,0.375,0.661,0.621,���쐼,7.0,��
2021/02/16,22:40,0.642,0.924,0.593,1.161,0.808,0.375,0.661,0.621,��,7.5,��
2021/02/16,22:50,0.643,0.926,0.594,1.160,0.808,0.373,0.662,0.622,���쐼,8.3,��
2021/02/16,23:00,0.642,0.923,0.592,1.162,0.809,0.375,0.660,0.622,���쐼,9.0,��
2021/02/16,23:10,0.643,0.925,0.593,1.164,0.809,0.375,0.660,0.622,���쐼,8.8,��
2021/02/16,23:20,0.642,0.925,0.594,1.164,0.807,0.375,0.659,0.621,���쐼,6.1,��
2021/02/16,23:30,0.642,0.924,0.593,1.163,0.809,0.377,0.661,0.621,��,7.1,��
2021/02/16,23:40,0.643,0.924,0.594,1.163,0.808,0.375,0.661,0.623,���쐼,8.4,��
2021/02/16,23:50,0.643,0.925,0.593,1.161,0.806,0.375,0.661,0.622,��,9.1,�L
